Guthrie, OK

12:39 AM CST on November 25, 2017 (GMT -0600)
Guthrie Municipal

Weather History for KGOK - March, 2014

Change the Weather History Date:

Tuesday, March 4, 2014

  Actual Average Record
Temperature  
Mean Temperature 29 °F -  
Max Temperature 48 °F 59 °F 87 °F (1955)
Min Temperature 10 °F 32 °F 7 °F (1960)
Degree Days  
Heating Degree Days 36    
Moisture  
Dew Point 17 °F    
Average Humidity 59    
Maximum Humidity 81    
Minimum Humidity 39    
Precipitation  
Precipitation 0.11 in - - ()
Sea Level Pressure  
Sea Level Pressure 30.13 in    
Wind  
Wind Speed 5 mph (SSE)    
Max Wind Speed 14 mph    
Max Gust Speed -    
Visibility 9 miles    
Events      
Averages and records for this station are not official NWS values.
T = Trace of Precipitation, MM = Missing Value Source: NWS Daily Summary

Daily Weather History Graph

Daily Weather History Graph

Search for Another Location

Airport or City:

Trip Planner

Search our weather history database for the weather conditions in past years. The results will help you decide how hot, cold, wet, or windy it might be!

Date:

Astronomy

Mar. 04, 2014 Rise Set
Actual Time 6:55 AM CST 6:27 PM CST
Civil Twilight 6:30 AM CST 6:53 PM CST
Nautical Twilight 6:00 AM CST 7:22 PM CST
Astronomical Twilight 5:30 AM CST 7:52 PM CST
Moon 8:50 AM CST (3/4) 10:27 PM CST (3/4)
Length of Visible Light 12h 23m
Length of Day
11h 31m
Waxing Crescent, 15% of the Moon is Illuminated
Mar 4
Waxing Crescent
Mar 8
First Quarter
Mar 16
Full
Mar 23
Last Quarter
Mar 30
New

Hourly Weather History & Observations

Time (CST) Temp. Windchill Dew Point Humidity Pressure Visibility Wind Dir Wind Speed Gust Speed Precip Events Conditions
12:53 AM 12.0 °F - 5.0 °F 73% 30.31 in 8.0 mi Calm Calm - N/A   Clear
1:53 AM 10.0 °F 3.6 °F 5.0 °F 80% 30.29 in 9.0 mi SSE 3.5 mph - N/A   Clear
2:53 AM 10.9 °F 4.7 °F 5.0 °F 77% 30.27 in 8.0 mi South 3.5 mph - N/A   Clear
3:53 AM 12.9 °F 5.2 °F 7.0 °F 77% 30.24 in 8.0 mi South 4.6 mph - N/A   Clear
4:53 AM 12.9 °F 6.9 °F 8.1 °F 81% 30.23 in 8.0 mi SSE 3.5 mph - N/A   Clear
5:53 AM 17.1 °F 7.6 °F 9.0 °F 71% 30.21 in 8.0 mi SSE 6.9 mph - N/A   Clear
6:53 AM 17.1 °F 7.6 °F 9.0 °F 71% 30.22 in 8.0 mi SSE 6.9 mph - N/A   Clear
7:53 AM 19.0 °F 11.1 °F 10.9 °F 71% 30.21 in 7.0 mi SSE 5.8 mph - N/A   Clear
8:53 AM 26.1 °F 14.5 °F 14.0 °F 60% 30.19 in 8.0 mi South 13.8 mph - N/A   Clear
9:53 AM 30.9 °F 22.2 °F 16.0 °F 54% 30.18 in 8.0 mi SSW 10.4 mph - N/A   Clear
10:53 AM 35.1 °F 27.4 °F 17.1 °F 48% 30.17 in 9.0 mi SSW 10.4 mph - N/A   Clear
11:53 AM 39.0 °F 32.3 °F 18.0 °F 43% 30.14 in 9.0 mi SSW 10.4 mph - 0.10 in   Clear
12:53 PM 41.0 °F 36.4 °F 19.9 °F 43% 30.11 in 9.0 mi South 6.9 mph - 0.01 in   Clear
1:53 PM 43.0 °F 37.7 °F 21.0 °F 42% 30.09 in 9.0 mi South 9.2 mph - N/A   Clear
2:53 PM 46.0 °F 42.5 °F 21.9 °F 39% 30.04 in 9.0 mi SSE 6.9 mph - N/A   Clear
3:53 PM 48.0 °F - 25.0 °F 41% 30.03 in 9.0 mi South 6.9 mph - N/A   Clear
4:53 PM 48.0 °F - 26.1 °F 42% 30.01 in 9.0 mi SSE 9.2 mph - N/A   Clear
5:53 PM 46.9 °F - 25.0 °F 42% 30.00 in 10.0 mi South 10.4 mph - N/A   Clear
6:53 PM 43.0 °F 41.3 °F 25.0 °F 49% 30.01 in 10.0 mi SE 3.5 mph - N/A   Clear
7:53 PM 39.0 °F 35.7 °F 25.0 °F 57% 30.01 in 10.0 mi SE 4.6 mph - N/A   Clear
8:53 PM 37.9 °F 35.5 °F 26.1 °F 62% 30.03 in 10.0 mi East 3.5 mph - N/A   Clear
9:53 PM 37.0 °F 33.3 °F 25.0 °F 62% 30.03 in 10.0 mi SSE 4.6 mph - N/A   Clear
10:53 PM 36.0 °F 30.3 °F 26.1 °F 67% 30.02 in 10.0 mi SSE 6.9 mph - N/A   Clear
11:53 PM 36.0 °F 30.3 °F 26.1 °F 67% 30.02 in 10.0 mi SSE 6.9 mph - N/A   Clear